Regional Weather Roundup
Issued by NWS

Home | Current Version | Previous Version | Graphics & Text | Print | Product List | Glossary On
Versions: 1 2 3 4 5 6 7 8 9 10 11 12 13 14 15 16 17 18 19 20 21 22 23 24 25 26 27 28 29 30 31 32 33 34 35 36 37 38 39 40 41 42 43 44 45 46 47 48 49 50
000
ASUS45 KTFX 290404
RWRMT
MONTANA HOURLY WEATHER ROUNDUP
NATIONAL WEATHER SERVICE GREAT FALLS MT
904 PM MST SUN DEC 28 2014

NOTE: "FAIR" INDICATES FEW OR NO CLOUDS BELOW 12000 FEET WITH NO
SIGNIFICANT WEATHER AND/OR OBSTRUCTIONS TO VISIBILITY.

* THESE STATIONS ARE NOT UNDER NWS QUALITY CONTROL. THEY DO NOT
   REPORT WEATHER SUCH AS PRECIPITATION OR FOG.

MTZ001>007-043-290500-
WEST OF THE DIVIDE
CITY           SKY/WX    TMP DP  RH WIND       PRES   REMARKS
KALISPELL      CLOUDY    18   9  68 N24G31    30.24R
MISSOULA       CLOUDY    19  10  68 SE18      30.19R WCI   4
BUTTE          LGT SNOW   9   3  76 NW10      30.08R VSB 3    WCI  -5
MULLAN PASS    LGT SNOW  19  14  81 VRB5      29.94R VSB 3/4  WCI  12
* ESSEX        N/A       12   1  61 SE8G13     N/A
* LINCOLN      N/A       10   2  70 NE14G20    N/A   WCI  -6
* LOOKOUT PASS N/A       21  20  96 S6         N/A   WCI  13
* POLSON       N/A       20  17  88 N1         N/A
* RONAN APT    MOCLDY    23  21  92 N/A        N/A
* SEELEY LAKE  N/A       12   5  73 NE1G7      N/A
* THOMP F APT  CLOUDY    10   7  88 N2         N/A
$$

MTZ008-052>055-290500-
SOUTHWEST MONTANA
CITY           SKY/WX    TMP DP  RH WIND       PRES   REMARKS
BOZEMAN        CLOUDY    12   9  88 S8        30.15R
DILLON         CLOUDY    12   9  88 NE18      30.04R WCI  -5
* W YELLOWSTON MOCLDY    14  11  88 SW3        N/A
* THREE FORKS  MOCLDY    16  16 100 N7         N/A   WCI   6
* BOULDER HILL N/A        5   0  80 VRB17G22    N/A   WCI -14
* MONIDA PASS  N/A       10   9  96 E3         N/A
* RAYNOLDS PAS N/A        7 -36  11 N12        N/A   WCI  -9
* WHITEHALL    N/A       13   3  64 NE12G21    N/A   WCI  -1
* WISE RIVER   N/A       13   3  64 SE12G17    N/A   WCI  -1
$$

MTZ009>010-012-014-046-048-049-054-290500-
EAST SLOPES AND CENTRAL MONTANA
CITY           SKY/WX    TMP DP  RH WIND       PRES   REMARKS
CUT BANK       LGT SNOW   7   1  76 N23       30.36R VSB 1    WCI -14
GREAT FALLS    LGT SNOW   9   5  84 N16       30.33R VSB 1 1/4 WCI  -8
HELENA         LGT SNOW  12   7  80 NW15      30.28R VSB 2    WCI  -4
* DEARBORN     N/A       13   6  73 N8         N/A   WCI   2
* EAST GLACIER N/A        5  -1  76 NE15G22    N/A   WCI -13
* MONARCH      N/A        2  -2  83 W8         N/A   WCI -12
* PENDROY      N/A        7   5  91 VRB21G28    N/A   WCI -13
* SWEET GRASS  N/A        2  -1  87 N/A        N/A
$$

MTZ011-013-016-021-035-040-045-047-050-051-290500-
NORTH CENTRAL MONTANA
CITY           SKY/WX    TMP DP  RH WIND       PRES   REMARKS
HAVRE          CLOUDY    10   3  73 NE13      30.43R WCI  -5
LEWISTOWN      LGT SNOW  10   9  96 W8        30.25R VSB 1 3/4 WCI  -2
* N BAR RANCH  CLOUDY    12   5  73 N12       30.22R WCI  -2
* CHESTER      N/A        9   2  73 NE14G19    N/A   WCI  -7
* DENTON       N/A       11   7  84 NW14G19    N/A   WCI  -5
* GEYSER       N/A        9   6  87 W17        N/A   WCI  -9
* JUDITH GAP   N/A       10   9  96 N24G29     N/A   WCI -10
* LOMA         N/A       11   7  84 N19G25     N/A   WCI  -7
$$

MTZ017>020-022>027-061-062-290500-
NORTHEAST MONTANA
CITY           SKY/WX    TMP DP  RH WIND       PRES   REMARKS
GLASGOW        CLOUDY     7  -2  66 NE10      30.43R WCI  -7
GLENDIVE       CLOUDY     9   1  70 NE17      30.33R WCI  -9
JORDAN         CLOUDY    10   3  73 NE10      30.35R WCI  -4
SIDNEY         CLOUDY     7  -2  66 N9G18     30.44R WCI  -6
WOLF POINT     CLOUDY     7  -6  55 NE13      30.47R WCI  -9
* BEAVER HILL  N/A        7   3  83 N16        N/A   WCI -11
* CIRCLE       N/A        6   0  76 NE10G16    N/A   WCI  -9
* LINDSAY DVD  N/A        6   1  80 N12G17     N/A   WCI -10
* NAVAJO       N/A      -10 -15  78 N11        N/A   WCI -29
* SACO         N/A        7  -1  69 VRB12      N/A   WCI  -9
$$

MTZ028>042-056>058-290500-
SOUTHCENTRAL AND SOUTHEAST MONTANA
CITY           SKY/WX    TMP DP  RH WIND       PRES   REMARKS
BAKER          LGT SNOW  10   7  88 E16G22    30.24R VSB 1 1/4 WCI  -7
BILLINGS       LGT SNOW  16  12  84 N10       30.24R VSB 1 1/2 WCI   4
LIVINGSTON     LGT SNOW  16   9  74 E13       30.15R WCI   2
MILES CITY     LGT SNOW  12   9  88 NE18      30.27R VSB 2 1/2 WCI  -5
* LAUREL APT   MOCLDY    16   5  62 N/A        N/A
* ROUNDUP APT  CLOUDY    14   7  73 N16G22     N/A   WCI  -2
* ALZADA       N/A       17  14  88 NE8        N/A   WCI   7
* HYSHAM       N/A       10   6  84 NE6G13     N/A
* REED POINT   N/A       16  14  92 E1         N/A
* ROSCOE HILL  N/A       11   6  80 E1         N/A
$$

REGIONAL REPORTS...DAKOTAS
CITY           SKY/WX    TMP DP  RH WIND       PRES   REMARKS
WILLISTON      CLOUDY     1  -6  72 NE12      30.45R WCI -16
DICKINSON      LGT SNOW   7   1  76 NE10      30.29R VSB 2    WCI  -7
CROSBY         CLEAR     -8 -13  78 NW10      30.47R WCI -26
WATFORD CITY   CLOUDY     3   0  87 N14       30.39R WCI -15
BISMARCK       CLOUDY     1  -4  79 NE9       30.41R WCI -14
GRAND FORKS    CLEAR     -9 -15  74 NW3       30.49R
FARGO          CLEAR     -2  -9  72 N12       30.47R WCI -20
BUFFALO SD     MOCLDY    16  12  84 E18       30.11R
RAPID CITY     LGT SNOW  16  10  77 NE10      30.13R VSB 2 1/2 WCI   4
$$

REGIONAL REPORTS...WYOMING/IDAHO/WASHINGTON
CITY           SKY/WX    TMP DP  RH WIND       PRES   REMARKS
GILLETTE       LGT SNOW  19  18  96 N6        30.02R VSB 3    WCI  11
SHERIDAN       LGT SNOW  18  12  77 NW24      30.12R VSB 1
CODY           CLOUDY    16   9  74 NW16G23   30.08R WCI   1
YELLOWSTONE LA CLOUDY    10   7  88 CALM      29.92R
SALMON         CLOUDY    18  14  84 SE3       30.04S
MULLAN PASS    LGT SNOW  19  14  81 VRB5      29.94S VSB 3/4  WCI  12
SAND POINT     CLOUDY    30  23  75 N18G24    30.15R WCI  18
SPOKANE        LGT SNOW  28  28 100 CALM      30.10R

$$




USA.gov is the U.S. government's official web portal to all federal, state and local government web resources and services.